Theta_e
292 293 293 293 293 293 292 292 292 292 293 293 293 293 293 292 293 292 292 292 291 291 292 292 292 293 293 293 294 295 297 296 290 290 291 290 288 288 287 286 286 286 287
291 291 291 292 292 292 291 291 291 291 291 291 292 291 292 291 291 289 289 289 288 288 288 289 289 292 291 291 292 292 294 294 291 286 288 288 287 287 286 283 282 283 284
289 289 289 290 290 290 290 290 290 290 289 290 290 290 290 290 290 289 289 288 287 287 287 286 287 288 288 289 290 290 291 292 291 288 286 286 286 286 283 283 279 279 282
287 287 287 287 288 289 290 290 290 289 288 288 288 289 289 289 289 289 288 287 287 287 287 286 286 286 286 287 287 287 288 288 287 286 284 282 282 283 282 281 277 277 277
285 285 285 287 287 288 288 288 288 288 287 287 287 288 288 288 289 287 287 286 286 285 285 286 285 285 286 288 286 286 287 286 284 283 282 280 280 279 280 280 280 277 275
281 282 284 285 285 286 287 287 287 286 285 285 285 286 286 287 288 288 286 284 284 283 283 284 285 284 285 286 286 287 287 285 283 282 280 279 279 279 280 279 280 278 275
279 280 280 282 283 283 285 285 285 284 284 283 284 284 286 286 287 286 284 283 282 282 282 282 283 285 283 282 283 283 283 285 285 282 279 279 278 279 279 278 277 276 273
279 279 279 280 281 282 282 282 283 283 282 282 282 282 285 287 287 285 284 282 281 281 281 281 282 283 285 283 280 280 280 280 280 280 279 279 279 279 280 279 277 275 274
278 278 278 279 279 280 280 280 281 281 281 280 281 281 282 284 287 286 284 282 281 281 281 281 282 282 285 285 282 279 279 279 283 282 282 282 282 282 280 279 273 268 266
277 278 278 278 279 278 279 280 281 281 281 282 282 282 282 282 285 286 285 283 282 281 280 281 282 282 284 285 283 281 277 277 276 276 275 275 275 275 276 274 276 269 266
277 278 278 278 279 278 279 280 280 281 281 281 281 281 281 282 283 285 286 283 283 281 280 280 280 282 283 285 285 283 281 278 278 276 274 273 273 272 271 271 271 270 265
276 275 274 274 277 278 276 278 278 281 280 280 280 280 281 282 283 284 286 286 285 282 279 279 280 281 282 283 282 283 282 277 272 270 269 269 269 269 269 270 270 270 270
271 270 271 272 275 275 274 277 279 279 279 279 279 279 279 281 282 283 284 285 284 281 281 280 279 279 278 278 280 279 273 271 268 265 264 266 267 266 265 263 263 263 261
267 268 270 270 271 271 274 275 278 278 278 279 279 278 279 280 280 281 281 281 282 281 280 278 277 276 276 273 270 272 271 270 269 266 263 261 260 260 258 261 258 256 255
267 268 268 269 266 268 271 270 275 279 279 279 279 279 278 278 280 281 281 280 280 281 279 277 274 266 264 264 263 264 264 264 262 259 257 256 257 257 257 254 252 252 255
267 267 267 266 265 267 266 268 274 278 280 282 282 280 281 281 281 281 281 280 280 281 278 274 270 261 260 260 258 259 258 258 257 257 254 254 254 255 255 253 252 250 253
264 265 264 266 265 263 263 264 264 270 277 279 281 283 283 281 281 281 280 279 279 280 275 274 271 264 259 258 257 257 258 256 254 254 253 253 252 250 252 251 251 250 251
258 262 261 261 260 259 259 260 260 268 268 268 274 277 278 280 279 279 278 274 267 273 273 272 270 264 258 257 257 257 256 255 254 253 252 249 249 251 251 250 249 250 248
260 259 257 257 257 257 257 257 257 260 270 269 262 270 270 275 276 274 274 268 270 270 269 266 262 261 258 255 254 252 252 252 251 250 248 248 247 248 247 246 248 249 248
257 259 257 255 255 255 254 255 255 255 261 260 259 260 262 264 263 262 262 262 264 261 259 259 259 258 254 254 252 251 250 251 250 249 247 246 245 246 247 247 246 249 247
257 254 256 254 253 253 252 253 253 253 255 255 255 258 273 258 258 259 256 258 254 255 256 258 258 255 254 253 252 251 251 250 248 247 247 246 245 248 245 246 244 244 244
257 254 252 253 253 254 253 252 253 253 253 254 255 255 268 256 256 256 256 257 256 255 255 256 256 255 254 254 253 252 251 250 247 246 247 245 245 245 245 245 244 244 243
258 255 252 252 252 253 253 251 252 252 253 252 253 255 254 254 255 256 257 258 259 257 255 255 256 255 253 252 250 252 253 252 251 248 247 246 246 245 244 245 244 245 245
258 257 255 252 252 252 252 252 252 253 252 252 252 252 253 253 255 256 256 257 258 259 259 258 257 256 254 252 250 248 248 246 245 248 248 247 246 244 243 243 244 244 244
257 255 255 255 253 253 252 251 252 250 251 252 252 252 252 252 255 255 255 256 256 257 257 257 258 258 256 256 252 251 254 253 248 248 245 247 246 243 242 242 243 243 244
256 255 253 251 251 250 251 252 252 251 252 252 252 251 251 252 253 253 255 255 255 255 254 255 255 254 254 253 252 255 260 259 252 251 247 249 247 243 243 243 243 243 243
Wind_Speed
19 19 19 18 18 16 13 13 13 14 14 16 16 15 14 13 12 12 10 11 12 11 9 9 10 8 6 6 5 3 3 5 7 5 4 6 6 7 6 6 5 5 5
12 13 14 13 13 12 11 11 13 14 13 13 13 13 12 11 10 12 12 12 12 12 10 10 11 7 9 8 5 5 4 4 6 12 7 3 4 5 6 6 5 5 4
12 13 13 12 11 12 11 11 11 11 11 13 13 13 12 11 9 10 11 11 12 12 10 11 10 9 10 7 7 6 5 6 5 7 7 2 3 3 5 5 5 4 5
12 13 14 14 12 10 9 10 9 10 10 11 12 11 10 9 10 9 9 10 10 11 11 12 12 12 9 8 7 6 5 7 8 7 5 3 3 3 3 3 4 5 3
12 13 13 11 10 10 10 9 9 11 10 9 9 10 10 9 6 7 8 8 8 10 9 9 10 11 17 18 6 7 5 6 6 6 3 3 2 2 2 2 3 3 2
9 10 10 10 11 11 11 10 10 10 9 10 10 10 10 8 15 14 9 8 8 8 7 7 7 7 13 19 19 21 12 4 4 3 2 3 2 2 1 2 3 2 1
9 8 9 9 10 10 9 9 9 8 7 9 9 8 9 7 15 14 13 7 8 8 8 7 7 6 6 8 15 17 17 19 12 4 5 3 2 0 2 2 2 3 2
9 9 10 8 8 8 8 8 7 6 8 7 8 8 9 8 12 12 12 8 8 8 8 7 7 7 5 6 8 10 10 10 9 7 7 4 3 1 2 2 4 6 3
9 9 8 8 9 8 7 6 5 4 5 6 5 6 7 7 10 9 6 4 6 6 6 7 7 7 10 7 6 8 7 8 12 15 15 14 12 10 5 4 2 3 2
5 6 6 6 6 6 6 7 5 5 5 5 6 7 7 7 9 7 4 3 5 3 4 6 11 7 9 7 3 5 5 4 4 5 5 9 10 11 15 7 1 3 2
3 4 5 5 5 5 5 4 4 5 6 6 6 6 6 6 6 10 8 3 2 3 3 4 5 10 9 9 7 4 4 5 7 5 5 5 6 7 6 7 7 3 3
3 3 3 4 5 5 5 5 5 4 4 3 4 4 4 5 8 9 10 6 5 4 3 3 5 11 10 10 8 8 10 8 4 3 3 3 4 4 4 5 7 7 7
4 5 4 4 4 5 4 5 4 5 4 3 2 2 2 2 3 10 11 9 9 6 4 8 9 9 9 8 7 8 6 4 3 3 2 2 2 2 2 2 3 4 4
4 3 3 4 4 4 3 2 3 4 4 3 3 3 3 2 3 4 4 4 5 5 6 5 7 7 7 5 4 5 3 2 2 3 2 0 2 3 2 2 3 3 3
3 2 3 2 4 4 4 2 2 3 3 6 1 2 3 1 2 4 5 3 3 2 2 3 2 3 3 3 3 4 4 4 3 2 2 2 2 2 3 3 2 3 4
3 1 2 1 2 2 3 4 6 6 10 12 14 2 0 2 5 7 7 3 5 9 2 2 1 2 1 1 1 2 3 3 2 2 2 2 2 2 2 3 3 3 3
4 2 1 2 2 2 3 3 4 7 8 12 14 15 4 4 6 9 6 4 8 5 2 2 2 2 1 1 1 1 0 2 1 3 2 2 2 2 3 2 2 2 2
3 3 2 1 2 3 3 2 2 4 4 3 8 12 14 9 10 10 10 7 4 4 3 2 2 3 1 1 0 1 1 2 3 2 3 2 2 2 2 2 2 2 1
3 2 2 1 2 2 2 3 3 3 3 3 4 6 9 11 9 12 11 3 2 3 3 3 2 2 1 1 1 2 1 1 1 2 1 1 1 3 2 2 2 3 2
4 5 3 2 3 2 3 3 3 3 3 3 3 3 4 5 4 4 4 3 3 3 2 2 2 2 2 2 2 2 2 2 1 2 1 1 1 2 2 3 2 2 1
3 3 4 3 2 2 1 2 1 0 1 1 2 4 9 3 2 2 2 3 2 2 1 1 2 2 1 1 2 2 2 1 1 1 2 1 2 2 1 2 2 3 2
4 4 3 3 2 1 1 0 0 0 0 1 2 4 7 3 2 1 2 2 2 2 2 1 2 2 1 1 2 2 2 2 1 1 1 1 1 3 2 2 2 2 2
5 5 3 2 2 1 0 2 1 2 2 3 2 2 2 1 1 0 1 1 2 2 2 2 1 1 1 1 1 2 3 4 4 4 4 3 2 2 1 2 2 2 2
6 6 4 3 3 2 2 2 1 2 2 3 3 2 2 2 2 2 2 1 1 1 2 2 1 1 1 1 1 1 1 1 2 3 5 4 3 3 2 2 1 2 2
6 5 4 4 4 3 3 2 3 2 2 2 2 2 3 2 2 2 2 2 1 0 1 1 1 1 0 1 1 1 2 5 3 3 3 5 5 5 3 2 2 2 2
6 6 3 3 3 3 3 3 3 3 3 3 3 2 2 3 3 2 2 1 2 2 2 1 1 2 2 1 2 3 3 4 4 5 4 4 5 3 3 4 4 3 2
Wind_Direction
43 44 43 48 48 48 48 38 43 40 28 46 51 51 45 43 34 45 43 49 44 35 35 49 49 31 28 41 53 49 79 101 116 90 94 117 110 121 97 81 73 65 71
43 56 50 48 56 53 50 47 35 42 36 49 54 60 54 51 47 55 50 38 52 44 27 36 32 32 36 29 35 41 70 77 119 128 131 107 91 103 101 75 72 68 43
27 39 39 33 33 38 34 46 46 47 37 37 45 46 44 41 47 54 62 58 51 43 37 39 32 34 30 19 33 44 48 87 101 130 123 95 99 93 89 72 55 45 48
24 32 34 28 22 22 28 36 38 44 49 43 40 46 46 45 38 40 53 63 59 53 46 40 35 39 36 18 23 36 70 86 94 107 101 87 92 72 85 114 71 40 35
24 27 19 9 10 19 31 36 42 44 45 41 45 42 43 45 41 52 53 50 59 63 49 51 43 37 49 48 35 17 46 84 95 104 91 88 82 75 145 143 115 132 67
28 25 13 16 16 20 21 26 32 38 38 46 39 38 36 45 48 54 65 66 50 52 55 46 56 38 49 57 54 53 49 65 88 93 89 92 91 100 82 142 129 169 118
30 33 22 17 20 16 13 21 31 33 37 39 37 32 46 56 55 52 57 56 57 45 39 28 41 37 55 55 55 58 51 58 62 73 103 86 110 177 176 126 110 88 68
24 17 14 14 22 17 22 23 27 21 24 28 30 24 41 47 66 68 62 59 64 51 41 34 32 21 38 74 66 63 64 63 59 66 72 77 85 130 126 108 98 100 117
20 18 10 6 5 8 17 5 10 47 48 39 33 29 35 30 52 70 65 58 67 56 41 43 25 24 30 100 92 89 79 73 73 75 74 70 64 59 85 98 69 82 26
17 4 356 358 12 6 355 358 3 24 32 38 34 28 33 29 24 35 50 64 70 77 42 34 44 28 23 42 111 119 105 84 82 64 53 51 45 46 52 47 64 113 105
14 10 12 3 1 1 350 6 6 32 22 13 15 13 10 10 4 18 22 36 68 76 52 46 39 41 32 40 60 65 99 107 84 67 62 49 46 47 44 43 41 77 119
70 57 12 359 2 4 360 8 16 20 14 15 353 351 355 354 9 11 9 64 72 71 55 41 31 36 38 35 35 81 102 92 77 70 62 53 52 43 33 43 47 55 56
68 39 17 7 9 358 4 16 10 4 353 347 340 340 335 1 7 8 10 56 60 70 69 57 45 43 41 25 55 77 81 90 99 81 86 51 37 344 349 28 24 37 49
75 39 21 25 355 1 1 2 358 358 343 337 335 331 329 3 16 7 1 7 46 74 80 68 60 47 47 54 27 39 39 69 102 116 106 8 330 20 37 5 57 359 57
83 53 23 16 7 352 343 301 330 330 304 306 282 309 314 42 35 21 355 350 348 343 121 111 94 39 14 10 19 28 30 40 74 34 68 70 43 40 18 356 51 23 76
119 94 43 7 360 2 359 343 339 341 348 20 13 238 117 74 33 2 328 310 313 286 191 122 101 66 65 326 51 28 21 34 30 73 58 73 82 76 61 3 56 67 84
132 145 98 41 24 3 3 18 4 338 1 19 21 15 161 82 41 4 348 3 340 358 92 109 128 129 188 259 302 338 20 346 330 77 85 87 98 50 59 32 34 59 20
154 140 98 39 22 28 16 350 15 7 3 337 2 25 21 42 32 20 1 29 3 21 37 53 90 112 164 169 139 65 22 19 41 54 78 76 74 124 80 56 34 103 53
152 98 86 89 57 34 40 21 15 0 351 4 349 11 8 355 38 26 30 33 10 23 30 47 35 98 113 128 105 69 81 37 68 81 41 103 137 106 89 93 95 64 102
106 129 139 106 56 44 37 53 16 4 20 18 354 321 337 14 21 8 13 11 19 28 8 55 34 66 106 124 117 113 87 62 61 75 79 83 87 98 121 130 113 108 62
139 139 132 88 92 95 138 99 108 292 94 8 287 294 50 89 11 18 4 18 7 349 8 54 42 52 55 96 123 122 125 158 188 148 152 171 142 97 100 84 106 99 101
146 135 117 130 149 102 164 84 41 249 280 104 300 325 44 71 63 35 352 355 328 303 308 103 109 99 100 109 177 149 155 189 203 169 164 169 127 109 123 98 65 58 52
137 125 123 144 113 145 346 81 21 329 311 309 308 334 356 14 10 21 334 322 0 343 341 11 54 74 46 78 140 182 165 213 208 163 159 159 150 130 117 106 113 72 43
137 137 154 160 124 182 171 143 151 266 285 302 314 312 317 314 314 305 303 310 359 11 10 5 8 73 60 48 62 82 121 131 131 169 156 147 150 122 93 92 106 99 103
137 137 165 165 152 197 180 203 143 249 251 246 276 293 299 297 288 286 303 316 316 353 358 10 358 349 120 106 109 89 68 83 118 129 117 117 128 134 112 103 128 85 64
138 141 169 144 155 182 201 192 178 188 235 234 237 235 253 272 271 272 277 272 283 296 293 276 195 194 188 188 182 175 139 122 107 113 120 117 123 114 100 111 86 82 87